WD6FGE Weather Reports


time (UTC)temp
F
wind
direction
speed
knots
gust
knots
rain 1hr
in
rain 24hr
in
rain mn
in
humidity
%
barometer
mb
20181215161310 35 202 0.0 0.0 0.00 0.30 0.06 92 1020.1
20181215160244 35 202 0.0 0.0 0.00 0.30 0.06 92 1019.9
20181215155250 35 202 0.0 0.0 0.00 0.30 0.06 92 1020.1
20181215154245 35 201 0.0 0.0 0.00 0.30 0.06 92 1020.1
20181215153308 34 201 0.0 0.9 0.00 0.29 0.05 92 1020.0
20181215152259 35 202 0.0 0.0 0.04 0.29 0.05 92 1020.2
20181215151313 35 202 0.0 0.0 0.10 0.29 0.05 92 1020.4
20181215150243 35 201 0.0 0.9 0.00 0.25 0.01 92 1020.3
20181215145248 35 202 0.0 0.0 0.00 0.25 0.01 92 1020.2
20181215144305 35 202 0.0 0.0 0.00 0.25 0.01 92 1020.0
20181215143324 35 202 0.0 0.9 0.00 0.25 0.01 92 1020.0
20181215142336 35 201 0.0 0.0 0.00 0.24 0.00 92 1020.1
20181215141353 35 201 0.0 0.0 0.00 0.24 0.00 92 1020.3
20181215140335 35 201 0.0 1.7 0.00 0.24 0.00 92 1019.9
20181215135303 35 202 0.0 0.0 0.00 0.24 0.00 92 1020.0
20181215134313 34 202 0.0 0.0 0.00 0.24 0.00 92 1020.3
20181215133242 35 202 0.0 0.0 0.00 0.24 0.00 92 1020.4
20181215132243 34 202 0.0 0.0 0.00 0.24 0.00 92 1020.2
20181215131307 34 202 0.0 0.0 0.00 0.24 0.00 92 1019.9
20181215130256 35 202 0.0 0.0 0.00 0.24 0.00 92 1019.6
20181215125228 34 202 0.0 0.0 0.00 0.24 0.00 92 1019.9
20181215124230 34 202 0.0 0.9 0.00 0.24 0.00 92 1020.0
20181215123204 34 202 0.0 0.9 0.00 0.24 0.00 92 1020.1
20181215122153 33 202 0.0 1.7 0.00 0.24 0.00 92 1020.2
20181215121153 33 197 0.0 0.9 0.00 0.24 0.00 92 1020.2
20181215120215 33 197 0.0 0.0 0.00 0.24 0.00 92 1020.1
20181215115229 32 197 0.0 0.0 0.00 0.24 0.00 92 1020.2
20181215114157 32 197 0.0 0.0 0.00 0.24 0.00 92 1020.0
20181215113206 32 197 0.0 0.9 0.00 0.24 0.00 92 1020.2
20181215112143 32 180 0.0 0.9 0.00 0.24 0.00 92 1020.2
20181215111205 32 180 0.0 0.9 0.00 0.24 0.00 92 1020.2
20181215110140 32 180 0.0 0.9 0.00 0.24 0.00 92 1020.2
20181215105147 31 180 0.0 0.9 0.00 0.24 0.00 92 1020.4
20181215104141 31 150 0.0 0.0 0.00 0.24 0.00 92 1020.4
20181215103159 31 105 0.0 0.0 0.00 0.24 0.00 92 1020.4
20181215102128 32 210 0.0 0.9 0.00 0.24 0.00 92 1020.3
20181215101130 32 215 0.0 0.9 0.00 0.24 0.00 92 1020.2
20181215100056 32 196 0.0 0.0 0.00 0.24 0.00 92 1020.2
20181215095119 32 196 0.0 0.0 0.00 0.24 0.00 92 1020.2
20181215094053 32 195 0.0 0.0 0.00 0.24 0.00 92 1019.9
20181215093034 33 195 0.0 0.0 0.00 0.24 0.00 91 1019.9
20181215092056 33 195 0.0 0.0 0.00 0.24 0.00 91 1019.9
20181215091038 33 195 0.0 2.6 0.00 0.24 0.00 91 1020.1
20181215090038 34 0 0.0 1.7 0.00 0.24 0.00 91 1020.3
20181215085049 34 38 0.0 0.0 0.00 0.24 0.00 91 1020.6
20181215084047 34 38 0.0 0.0 0.00 0.24 0.00 91 1020.7
20181215083053 34 36 0.0 0.0 0.00 0.24 0.00 91 1020.7
20181215082106 34 36 0.0 0.0 0.00 0.24 0.00 91 1020.9
20181215081132 34 35 0.0 0.9 0.00 0.24 0.00 91 1020.8
20181215080102 35 35 0.0 0.0 0.00 0.24 0.00 91 1020.8
20181215075127 35 72 0.0 0.9 0.00 0.24 0.25 90 1020.7
20181215074114 35 72 0.0 0.0 0.00 0.24 0.25 90 1020.8
20181215073102 35 244 0.0 1.7 0.00 0.24 0.25 90 1020.7
20181215072054 37 207 0.0 0.0 0.00 0.24 0.25 89 1020.8
20181215071034 38 207 0.0 0.9 0.00 0.24 0.25 89 1020.9
20181215070043 39 207 0.0 0.0 0.00 0.24 0.25 88 1021.0
20181215065019 40 207 0.0 0.9 0.00 0.24 0.25 92 1020.9
20181215064036 41 207 0.9 4.3 0.00 0.24 0.25 86 1020.9
20181215063051 41 225 1.7 5.2 0.00 0.24 0.25 87 1020.8
20181215062049 41 263 1.7 7.0 0.00 0.24 0.25 85 1020.9
20181215061057 41 186 2.6 11.3 0.00 0.24 0.25 86 1020.9
20181215060028 42 241 3.5 11.3 0.00 0.24 0.25 86 1020.9
20181215055023 42 229 3.5 7.8 0.00 0.24 0.25 86 1021.0
20181215054006 42 236 3.5 10.4 0.00 0.24 0.25 86 1020.8
20181215052944 42 169 3.5 12.2 0.00 0.24 0.25 88 1020.9
20181215051930 42 215 4.3 12.2 0.00 0.24 0.25 89 1020.5
20181215050953 42 223 4.3 9.6 0.00 0.24 0.25 89 1020.1
20181215045923 42 201 3.5 11.3 0.00 0.24 0.25 89 1020.1
20181215044857 42 211 5.2 13.9 0.00 0.24 0.25 89 1020.2
20181215043913 42 222 4.3 13.9 0.00 0.24 0.25 90 1020.4
20181215042904 42 215 4.3 8.7 0.00 0.24 0.25 91 1020.7
20181215041854 41 237 4.3 11.3 0.00 0.24 0.25 91 1020.4
20181215040912 41 220 5.2 11.3 0.00 0.24 0.25 91 1020.4
20181215035911 41 189 3.5 7.8 0.00 0.24 0.25 91 1020.3
20181215034854 41 269 2.6 7.8 0.00 0.24 0.25 91 1020.2
20181215033824 41 221 3.5 7.8 0.00 0.24 0.25 90 1019.9
20181215032815 40 211 3.5 8.7 0.04 0.24 0.24 90 1019.8
20181215031757 41 206 4.3 9.6 0.09 0.24 0.24 90 1019.8
20181215030736 41 186 3.5 13.0 0.06 0.21 0.23 90 1019.9
20181215025750 41 223 2.6 13.9 0.05 0.21 0.21 90 1019.8
20181215024743 41 244 4.3 13.9 0.09 0.21 0.21 90 1019.6
20181215023720 41 209 3.5 11.3 0.06 0.19 0.20 90 1019.3
20181215022718 41 244 4.3 12.2 0.06 0.19 0.19 90 1019.1
20181215021739 41 225 4.3 12.2 0.06 0.18 0.18 89 1018.8
20181215020707 41 202 4.3 10.4 0.05 0.16 0.17 89 1018.7
20181215015648 41 221 3.5 13.0 0.06 0.16 0.16 89 1018.7
20181215014652 42 259 2.6 13.0 0.05 0.14 0.15 90 1018.2
20181215013622 41 284 2.6 7.8 0.00 0.13 0.13 91 1017.8
20181215012608 41 276 0.9 5.2 0.00 0.13 0.13 90 1017.4
20181215011534 41 273 0.9 5.2 0.00 0.13 0.13 89 1017.2
20181215010535 41 265 1.7 7.0 0.00 0.13 0.13 89 1017.1
20181215005529 43 270 1.7 7.0 0.00 0.13 0.13 89 1016.8
20181215004530 44 242 0.9 5.2 0.00 0.13 0.13 88 1016.3
20181215003518 44 231 2.6 7.8 0.00 0.13 0.13 87 1016.1
20181215002458 45 171 3.5 13.0 0.00 0.13 0.13 87 1015.9
20181215001425 45 154 5.2 13.0 0.00 0.13 0.13 87 1015.9
20181215000352 45 179 5.2 11.3 0.00 0.13 0.13 88 1015.7
20181214235333 44 171 2.6 6.1 0.00 0.13 0.13 90 1015.6
20181214234335 43 157 3.5 9.6 0.00 0.13 0.13 90 1015.9
20181214233323 42 192 4.3 13.9 0.04 0.13 0.13 90 1016.1
20181214232335 42 173 4.3 13.9 0.05 0.12 0.12 89 1016.0
20181214231304 42 219 6.1 13.9 0.06 0.12 0.12 89 1016.0
20181214230313 42 184 5.2 12.2 0.08 0.10 0.10 88 1016.0
20181214225301 43 196 3.5 12.2 0.04 0.09 0.09 89 1015.6
20181214224319 44 190 3.5 8.7 0.08 0.09 0.09 89 1015.2
20181214223258 44 211 5.2 19.1 0.13 0.08 0.08 88 1015.0
20181214222304 45 246 6.1 19.1 0.04 0.06 0.06 88 1014.8
20181214221323 45 143 5.2 13.0 0.06 0.04 0.05 88 1014.9
20181214220256 45 190 3.5 9.6 0.08 0.04 0.04 87 1014.7
20181214215225 46 126 6.1 14.8 0.12 0.03 0.03 85 1014.6
20181214214158 47 235 8.7 16.5 0.00 0.01 0.01 81 1014.5
20181214213221 49 163 9.6 28.7 0.00 0.00 0.00 73 1014.1
20181214212150 50 184 13.0 28.7 0.00 0.00 0.00 64 1013.9
20181214211117 52 136 12.2 23.5 0.00 0.00 0.00 57 1013.5
20181214210117 51 184 10.4 26.9 0.00 0.00 0.00 58 1013.6
20181214205142 52 165 13.9 26.9 0.00 0.00 0.00 57 1013.8
20181214204152 52 162 13.0 26.1 0.00 0.00 0.00 57 1013.9
20181214203143 51 154 13.0 24.3 0.00 0.00 0.00 59 1014.1
20181214202157 51 202 13.0 31.3 0.00 0.00 0.00 61 1014.3
20181214201133 50 169 13.9 31.3 0.00 0.00 0.00 62 1014.7
20181214200104 49 178 13.0 31.3 0.00 0.00 0.00 62 1015.0
20181214195051 49 259 13.9 31.3 0.00 0.00 0.00 63 1015.1
20181214194105 49 183 14.8 30.4 0.00 0.00 0.00 62 1015.4
20181214193039 49 181 11.3 20.9 0.00 0.00 0.00 56 1015.6
20181214192011 49 232 9.6 21.7 0.00 0.00 0.00 54 1016.2
20181214190956 49 185 7.8 21.7 0.00 0.00 0.00 57 1015.9
20181214190008 47 145 5.2 14.8 0.00 0.00 0.00 67 1016.0
20181214184955 47 261 5.2 12.2 0.00 0.00 0.00 70 1016.0
20181214183923 46 194 4.3 12.2 0.00 0.00 0.00 71 1016.5
20181214182944 42 229 0.9 3.5 0.00 0.00 0.00 76 1016.7
20181214181920 40 188 0.9 4.3 0.00 0.00 0.00 76 1016.7
20181214180920 38 208 1.7 5.2 0.00 0.00 0.00 78 1016.2
20181214175907 37 5 1.7 7.8 0.00 0.00 0.00 81 1016.1
20181214174910 36 165 2.6 7.8 0.00 0.00 0.00 84 1016.5
20181214173927 34 126 0.9 2.6 0.00 0.00 0.00 86 1016.7
20181214172909 33 231 0.9 5.2 0.00 0.00 0.00 88 1016.7
20181214171914 32 119 0.9 5.2 0.00 0.00 0.00 90 1016.5
20181214170858 30 16 1.7 4.3 0.00 0.00 0.00 91 1017.0
20181214165858 29 54 0.0 1.7 0.00 0.00 0.00 92 1017.5
20181214164852 27 279 0.0 1.7 0.00 0.00 0.00 92 1018.1
20181214163821 26 256 0.0 1.7 0.00 0.00 0.00 92 1018.2
20181214162752 25 163 0.0 0.9 0.00 0.00 0.00 91 1018.0